Header for Extended Forecast Station List Page

Search by: ID | Name | Date | Parm | Value | Avg | % Avg
Sort by: ID | Name | Date | Parm | Value | Avg | % Avg

Enter search or view all records.

Click on id for station plot
#IDNameDateParmValueAvg% Avg
0LYDM8KOOTENAI-LIBBY DAM02-12-2018INFLOW (KAF)33313205104
1LEOI1KOOTENAI-AT LEONIA02-12-2018DISCHARGE (KAF)41283378122
2BFEI1KOOTENAI-AT BONNERS FERRY02-12-2018STAGE (FT)MMM
3FCFM8NF FLATHEAD-NEAR COLUMBIA FALLS02-12-2018DISCHARGE (KAF)13161041126
4WGCM8MF FLATHEAD-NEAR WEST GLACIER02-12-2018DISCHARGE (KAF)12591005125
5HHWM8SF FLATHEAD-HUNGRY HORSE DAM02-12-2018INFLOW (KAF)17461366128
6CFMM8FLATHEAD-AT COLUMBIA FALLS02-12-2018DISCHARGE (KAF)38192938130
7DLGM8CLARK FORK-AT DEER LODGE02-12-2018DISCHARGE (KAF)707890
8DRMM8CLARK FORK-NR DRUMMOND02-12-2018DISCHARGE (KAF)265MM
9RCCM8ROCK CREEK-NEAR CLINTON02-12-2018DISCHARGE (KAF)239168142
10BONM8BLACKFOOT-NEAR BONNER02-12-2018DISCHARGE (KAF)992570174
11ABOM8CLARK FORK-ABOVE MISSOULA02-12-2018DISCHARGE (KAF)15821047151
12BITM8BITTERROOT-NEAR MISSOULA02-12-2018DISCHARGE (KAF)1053838126
13BELM8CLARK FORK-BELOW MISSOULA02-12-2018DISCHARGE (KAF)26351904138
14STRM8ST. REGIS-NEAR ST. REGIS02-12-2018DISCHARGE (KAF)278225124
15SRGM8CLARK FORK-AT ST REGIS02-12-2018DISCHARGE (KAF)33822608130
16KERM8FLATHEAD-KERR DAM02-12-2018INFLOW (KAF)45013733121
17NOXM8CLARK FORK-NOXON RAPIDS DAM02-12-2018INFLOW (KAF)77716928112
18CABI1CLARK FORK-CABINET GORGE DAM02-12-2018INFLOW (KAF)86027268118
19PRTI1PRIEST-NEAR PRIEST RIVER02-12-2018DISCHARGE (KAF)756659115
20ALFW1PEND OREILLE-ALBENI FALLS DAM02-12-2018INFLOW (KAF)99978798114
21HOPI1PEND OREILLE-PEND OREILLE LAKE NR HOPE02-12-2018LAKE ELEVATION (FT)MMM
22COEI1COEUR D ALENE-COEUR D ALENE LAKE02-12-2018INFLOW (KAF)31812774115
23SPOW1SPOKANE-AT SPOKANE02-12-2018DISCHARGE (KAF)3229MM
24LLKW1SPOKANE-AT LONGLAKE02-12-2018INFLOW (KAF)35663327107
25SATI1ST MARIES-NEAR SANTA02-12-2018DISCHARGE (KAF)173150115
26SJMI1ST JOE-AT ST MARIES02-12-2018STAGE (FT)MMM
27CIBW1COLUMBIA-AT INTL BOUNDARY02-12-2018DISCHARGE (KAF)24923MM
28LAUW1KETTLE-AT LAURIER02-12-2018DISCHARGE (KAF)1308132499
29GCDW1COLUMBIA-GRAND COULEE DAM02-12-2018INFLOW (KAF)2991328033107
30CHJW1COLUMBIA-CHIEF JOSEPH DAM02-12-2018INFLOW (KAF)3019527019112
31TONW1OKANOGAN-NEAR TONASKET02-12-2018DISCHARGE (KAF)11721033113
32PATW1METHOW-NEAR PATEROS02-12-2018DISCHARGE (KAF)685568121
33WELW1COLUMBIA-WELLS DAM02-12-2018INFLOW (KAF)3202428669112
34CHDW1CHELAN-LAKE CHELAN DAM02-12-2018INFLOW (KAF)693629110
35RRHW1COLUMBIA-ROCKY REACH DAM02-12-2018INFLOW (KAF)3252229102112
36ARDW1ENTIAT-NEAR ARDENVOIR02-12-2018DISCHARGE (KAF)144122119
37PESW1WENATCHEE-AT PESHASTIN02-12-2018DISCHARGE (KAF)1111984113
38WANW1COLUMBIA-WANAPUM DAM02-12-2018INFLOW (KAF)3370029913113
39PRWW1COLUMBIA-PRIEST RAPIDS DAM02-12-2018INFLOW (KAF)3369330412111
40KEDW1YAKIMA-KEECHELUS LAKE02-12-2018INFLOW (KAF)117101116
41KADW1KACHESS-KACHESS DAM02-12-2018INFLOW (KAF)10196105
42EASW1YAKIMA-AT EASTON02-12-2018DISCHARGE (KAF)122100122
43CLUW1CLE ELUM-CLE ELUM LAKE02-12-2018INFLOW (KAF)310293106
44TNAW1TEANAWAY-BELOW FORKS02-12-2018DISCHARGE (KAF)156131119
45UMTW1YAKIMA-AT UMTANUM02-12-2018DISCHARGE (KAF)682606113
46BUDW1BUMPING-BUMPING LAKE DAM02-12-2018INFLOW (KAF)9786113
47CLFW1NACHES-NEAR CLIFFDEL02-12-2018DISCHARGE (KAF)351301117
48RILW1TIETON-RIMROCK LAKE NEAR RIMROCK02-12-2018INFLOW (KAF)165146113
49NACW1NACHES-NEAR NACHES02-12-2018DISCHARGE (KAF)543380143
50PARW1YAKIMA-NEAR PARKER02-12-2018DISCHARGE (KAF)779650120
51KIOW1YAKIMA-AT KIONA02-12-2018DISCHARGE (KAF)10271024100
52IPDI1HENRYS FORK-ISLAND PARK DAM02-12-2018INFLOW (KAF)198171116
53CHEI1FALL RIVER-NEAR CHESTER02-12-2018DISCHARGE (KAF)313263119
54ANTI1HENRYS FORK-AT ST. ANTHONY02-12-2018DISCHARGE (KAF)655577113
55TEAI1TETON-NEAR ST. ANTHONY02-12-2018DISCHARGE (KAF)264227116
56REXI1HENRYS FORK-AT REXBURG02-12-2018DISCHARGE (KAF)745670111
57JLKW4SNAKE-JACKSON LAKE AT DAM02-12-2018INFLOW (KAF)634457139
58JKSW4SNAKE-NEAR JACKSON02-12-2018DISCHARGE (KAF)1171838140
59ALPW4SNAKE-NEAR ALPINE02-12-2018DISCHARGE (KAF)14971114134
60PLDI1SF SNAKE-PALISADES DAM02-12-2018INFLOW (KAF)22071748126
61HEII1SNAKE-NEAR HEISE02-12-2018DISCHARGE (KAF)27671725160
62RIDI1WILLOW CREEK-RIRIE DAM02-12-2018INFLOW (KAF)274265
63SIFI1SNAKE-AB EAGLE ROCK NR IDAHO FALLS02-12-2018DISCHARGE (KAF)28691773162
64SHYI1SNAKE-NEAR SHELLEY02-12-2018DISCHARGE (KAF)27651784155
65SNAI1SNAKE-AT BLACKFOOT02-12-2018DISCHARGE (KAF)24981548161
66BFTI1SNAKE-NEAR BLACKFOOT02-12-2018DISCHARGE (KAF)24811539161
67PIHI1PORTNEUF-AT POCATELLO02-12-2018DISCHARGE (KAF)7610275
68AFRI1SNAKE-AMERICAN FALLS RESERVOIR02-12-2018INFLOW (KAF)30582220138
69MILI1SNAKE-AT MILNER02-12-2018DISCHARGE (KAF)990672147
70HOTI1BRUNEAU-NEAR HOT SPRINGS02-12-2018DISCHARGE (KAF)10315766
71SWAI1SNAKE-BELOW SWAN FALLS02-12-2018DISCHARGE (KAF)28052694104
72HWRI1BIG LOST-AT HOWELL RANCH NEAR CHILLY02-12-2018DISCHARGE (KAF)10084120
73MACI1BIG LOST-MACKAY RESERVOIR NEAR MACKAY02-12-2018INFLOW (KAF)8784104
74HALI1BIG WOOD-AT HAILEY02-12-2018DISCHARGE (KAF)167144116
75MAGI1BIG WOOD-MAGIC DAM02-12-2018INFLOW (KAF)15319479
76LWRI1LITTLE WOOD-LITTLE WOOD DAM02-12-2018INFLOW (KAF)436468
77OWYO3OWYHEE-OWYHEE DAM02-12-2018INFLOW (KAF)19036252
78ARAI1SF BOISE-ANDERSON RANCH DAM02-12-2018INFLOW (KAF)35240986
79LUCI1BOISE-LUCKY PEAK DAM02-12-2018INFLOW (KAF)841MM
80BIGI1BOISE-AT GLENWOOD BRIDGE02-12-2018DISCHARGE (KAF)31033393
81PARI1BOISE-NEAR PARMA02-12-2018DISCHARGE (KAF)35441086
82WRMO3MALHEUR-WARM SPRINGS DAM02-12-2018INFLOW (KAF)437458
83BERO3MALHEUR-AGENCY VALLEY DAM02-12-2018INFLOW (KAF)305258
84BULO3BULLY CREEK-BULLY CREEK DAM02-12-2018INFLOW (KAF)7983
85VALO3MALHEUR-NEAR VALE02-12-2018DISCHARGE (KAF)466473
86CSDI1NF PAYETTE-CASCADE DAM02-12-2018INFLOW (KAF)38641094
87DEDI1DEADWOOD-NEAR LOWMAN02-12-2018INFLOW (KAF)10195106
88EMMI1PAYETTE-NEAR EMMETT02-12-2018DISCHARGE (KAF)967104193
89WSRI1WEISER-NEAR WEISER02-12-2018DISCHARGE (KAF)32643275
90WEII1SNAKE-AT WEISER02-12-2018DISCHARGE (KAF)4752528290
91BRNI1SNAKE-BROWNLEE DAM02-12-2018INFLOW (KAF)5181570791
92WHBI1SALMON-AT WHITEBIRD02-12-2018DISCHARGE (KAF)43123917110
93TRYO3GRANDE RONDE-TROY02-12-2018DISCHARGE (KAF)11891188100
94ANAW1SNAKE-NEAR ANATONE02-12-2018DISCHARGE (KAF)104301173289
95ORFI1CLEARWATER-AT OROFINO02-12-2018DISCHARGE (KAF)44633807117
96DWRI1NF CLEARWATER-DWORSHAK DAM02-12-2018INFLOW (KAF)29382439120
97SPDI1CLEARWATER-AT SPALDING02-12-2018DISCHARGE (KAF)69516013116
98LGDW1SNAKE-LOWER GRANITE DAM02-12-2018INFLOW (KAF)173801776298
99LGSW1SNAKE-LITTLE GOOSE DAM02-12-2018INFLOW (KAF)173801779298
100LMNW1SNAKE-LOWER MONUMENTAL DAM02-12-2018INFLOW (KAF)177521803198
101IHDW1SNAKE-ICE HARBOR DAM02-12-2018INFLOW (KAF)177521788199
102TCHW1WALLA WALLA-NEAR TOUCHET02-12-2018DISCHARGE (KAF)244200122
103MCDW1COLUMBIA-MCNARY DAM02-12-2018INFLOW (KAF)5256050349104
104GIBO3UMATILLA-NEAR GIBBON02-12-2018DISCHARGE (KAF)9184108
105PDTO3UMATILLA-AT PENDLETON02-12-2018DISCHARGE (KAF)213192111
106MYKO3MCKAY CREEK-NEAR PILOT ROCK02-12-2018DISCHARGE (KAF)4537120
107UMAO3UMATILLA-NEAR UMATILLA02-12-2018DISCHARGE (KAF)187156120
108MONO3NF JOHN DAY-AT MONUMENT02-12-2018DISCHARGE (KAF)50962082
109SERO3JOHN DAY-AT SERVICE CK02-12-2018DISCHARGE (KAF)66289774
110JDAO3COLUMBIA-JOHN DAY DAM02-12-2018INFLOW (KAF)5467252950103
111MODO3DESCHUTES-AT MOODY NR BIGGS02-12-2018DISCHARGE (KAF)1472155195
112TDAO3COLUMBIA-THE DALLES DAM02-12-2018INFLOW (KAF)5513252062106
113PITW1KLICKITAT-NEAR PITT02-12-2018DISCHARGE (KAF)48553092
114HODO3HOOD-NEAR TUCKER BRIDGE02-12-2018DISCHARGE (KAF)26628095
115UNDW1WHITE SALMON-NEAR UNDERWOOD02-12-2018DISCHARGE (KAF)357357100
116BONO3COLUMBIA-BONNEVILLE DAM02-12-2018INFLOW (KAF)5622654527103